Home   Weather   Harstad   Past weeks

Flag for Norway Past Weather in Harstad, Norway — Yesterday and Last 2 Weeks

Now
43 °F

Passing clouds.


Feels Like: 38 °F
Forecast: 29 / 40 °F
Wind: 8 mph from North

Location: Evenes

Current Time: Apr 27, 2017 at 5:09:38 pm

Latest Report: Apr 27, 2017 at 4:20 pm


Visibility: N/A

Pressure: 29.95 "Hg

Humidity: 49%

Dew Point: 25 °F

Location of HarstadLocation

Past Weather in Harstad — Graph

°F

Harstad Temperature Yesterday

Maximum temperature yesterday: 41 °F (at 12:50 pm)
Minimum temperature yesterday: 21 °F (at 5:50 am)
Average temperature yesterday: 34 °F

High & Low Weather Summary for the Past Weeks

 TemperatureHumidityPressure
High43 °F (Apr 27, 2:50 pm)100% (Apr 18, 12:50 pm)30.39 "Hg (Apr 18, 12:50 pm)
Low16 °F (Apr 16, 3:50 am)35% (Apr 15, 4:50 pm)28.97 "Hg (Apr 21, 4:50 am)
Average32 °F66%29.81 "Hg
* Reported Apr 12 3:50 pm — Apr 27 3:50 pm, Harstad, Weather by CustomWeather, © 2017

Note: Actual official high and low records may vary slightly from our data, if they occured in-between our weather recording intervals... More about our weather records

Advertising

Harstad Weather History for the Previous 24 Hours

Scroll right to see more
 ConditionsComfort  
Time TempWeatherWind HumidityBarometerVisibility
3:50 pm
Thu, Apr 27
43 °FPassing clouds.8 mph46%29.95 "HgN/A
2:50 pm43 °FPassing clouds.8 mph49%29.95 "HgN/A
2:20 pm41 °FPassing clouds.8 mph53%29.92 "HgN/A
1:50 pm41 °FPassing clouds.10 mph53%29.92 "HgN/A
12:50 pm41 °FPassing clouds.9 mph53%29.89 "HgN/A
12:20 pm41 °FPassing clouds.8 mph53%29.89 "HgN/A
11:50 am39 °FPassing clouds.9 mph52%29.89 "HgN/A
11:20 am39 °FPassing clouds.10 mph52%29.86 "HgN/A
10:50 am37 °FPassing clouds.9 mph56%29.86 "HgN/A
9:50 am37 °FPassing clouds.8 mph56%29.83 "HgN/A
8:50 am36 °FPassing clouds.5 mph56%29.83 "HgN/A
6:50 am28 °FSunny.2 mph74%29.80 "Hg10 mi
5:50 am25 °FSunny.2 mph86%29.77 "Hg10 mi
5:20 am23 °FCold.2 mph93%29.77 "HgN/A
4:50 am23 °FCold.2 mph86%29.77 "HgN/A
4:20 am23 °FCold.3 mph93%29.74 "HgN/A
3:20 am25 °FCold.1 mph86%29.74 "HgN/A
2:50 am27 °FChilly.1 mph80%29.74 "HgN/A
2:20 am27 °FChilly.5 mph80%29.74 "HgN/A
1:50 am28 °FClear.7 mph80%29.71 "Hg10 mi
12:50 am30 °FClear.7 mph75%29.71 "Hg10 mi
11:50 pm
Wed, Apr 26
30 °FClear.6 mph75%29.71 "Hg10 mi
9:50 pm34 °FClear.6 mph70%29.71 "Hg10 mi
8:50 pm36 °FSunny.6 mph60%29.68 "Hg10 mi
8:20 pm37 °FSunny.9 mph56%29.68 "Hg10 mi
7:50 pm37 °FPassing clouds.7 mph56%29.68 "HgN/A
6:50 pm37 °FSunny.7 mph56%29.68 "Hg10 mi
5:50 pm41 °FPassing clouds.7 mph45%29.68 "HgN/A
Weather by CustomWeather, © 2017

See weather overviewHow to use our weather pages